GFSSGP_sfc_wetblb_000.txt.gz
Wetbulb
66.37 65.68 61.89 57.18 50.52 48.51 45.66 49.47 53.19 51.39 49.79 51.89 52.44 51.61 50.00 49.58 50.55 46.40 58.79 66.17 65.92 65.68 69.76 72.73 74.35 74.08 73.65 73.33 73.00 72.76 72.61 71.62 70.68 70.29 69.89 69.76 69.35 68.76 68.52 68.35 68.02 67.27 66.97 66.80 67.04 67.41 67.70 68.32 69.17
63.73 62.58 56.75 56.18 48.10 44.57 46.45 52.56 51.01 50.25 52.03 52.34 52.51 51.23 50.77 52.74 58.89 58.34 61.96 66.85 65.71 66.50 69.27 71.40 74.48 74.13 74.00 73.78 73.63 73.38 72.94 71.82 71.04 70.79 70.60 70.70 70.25 69.67 69.16 69.07 68.95 68.67 68.11 67.87 67.46 67.58 67.60 67.80 67.83
60.17 58.92 53.34 52.51 48.09 44.74 46.55 53.06 54.24 53.14 53.24 52.67 51.41 54.12 53.71 53.88 59.51 58.97 61.11 67.58 66.02 66.54 68.95 70.56 74.63 74.23 74.25 73.85 73.75 73.53 73.25 72.54 71.69 71.47 70.95 70.68 70.17 69.91 69.89 69.57 69.52 69.35 69.40 69.13 68.56 67.99 67.98 67.84 68.79
60.23 59.61 56.73 48.73 45.94 50.44 52.08 54.66 55.52 50.58 51.62 52.02 52.65 52.88 55.72 58.99 60.56 61.22 67.40 68.89 66.82 67.43 68.98 71.58 74.58 74.20 74.33 73.73 73.26 73.11 72.91 72.61 71.47 71.20 70.73 70.27 69.69 70.29 70.54 69.21 69.06 69.12 69.11 69.12 69.26 68.58 68.01 68.87 68.98
60.51 56.27 48.52 45.80 48.05 51.77 53.93 54.50 51.36 49.71 50.09 50.53 51.77 52.44 53.56 59.04 62.15 62.28 65.43 68.80 66.45 67.13 68.90 72.40 74.70 74.57 74.70 73.73 72.91 73.23 73.28 72.41 71.43 70.84 70.48 69.63 70.09 69.90 69.20 68.64 68.56 68.55 68.62 68.94 69.30 69.01 69.07 69.49 68.90
54.28 52.01 42.99 42.32 46.87 51.55 51.99 53.62 53.17 50.94 51.20 51.03 52.78 52.95 53.12 58.85 60.37 60.37 60.47 60.91 67.16 69.18 71.07 72.33 74.50 74.47 74.29 74.22 73.28 72.58 71.14 70.19 69.36 68.31 68.10 68.44 68.22 68.13 68.05 67.80 67.94 67.85 67.91 68.48 68.93 68.89 69.35 69.37 68.92
51.83 48.43 44.21 46.04 48.31 49.29 52.09 54.67 52.93 51.71 51.48 50.57 53.38 51.55 54.04 56.40 58.64 59.71 58.04 63.57 66.44 68.66 69.87 70.72 72.05 73.40 73.75 72.54 72.31 71.43 70.30 69.03 67.25 65.61 65.42 65.66 65.83 65.98 66.41 66.53 66.88 67.05 67.08 67.66 68.79 69.08 69.14 69.24 68.65
53.92 49.58 44.96 45.98 46.12 46.93 52.72 51.23 51.87 52.09 53.16 54.29 55.18 52.16 51.41 56.72 58.65 57.35 57.47 57.75 62.17 64.47 66.36 66.90 66.56 66.86 67.11 68.79 71.26 70.25 68.63 66.50 66.00 65.90 65.76 65.28 64.97 65.01 65.28 65.64 65.69 66.26 66.55 66.75 68.22 68.56 68.46 68.56 68.59
56.28 46.66 44.39 46.18 47.96 49.48 54.36 49.24 53.09 54.95 52.96 53.66 54.18 55.08 57.88 59.30 57.63 55.81 54.92 55.31 55.31 59.28 61.78 63.68 63.11 64.44 65.02 65.60 67.39 68.37 67.31 66.71 66.70 65.92 65.85 65.25 61.65 60.58 61.88 64.00 66.07 66.48 66.94 66.98 67.24 67.73 67.98 67.45 67.83
51.95 46.29 49.34 53.59 52.28 50.69 53.63 50.98 51.80 51.24 51.29 52.34 55.06 57.69 58.66 58.41 56.27 55.25 54.39 54.16 53.53 54.66 55.21 57.02 58.22 59.87 61.92 65.37 63.98 63.64 62.84 62.79 62.45 61.41 60.38 59.76 59.55 59.53 62.76 64.10 65.83 65.99 66.72 66.96 67.28 67.11 67.18 66.77 62.10
52.23 49.56 53.58 54.32 55.00 54.64 53.52 53.42 53.39 50.78 49.24 51.40 52.01 55.53 56.74 55.85 54.62 54.80 54.40 54.05 52.86 53.94 56.77 57.10 57.86 58.44 59.06 60.29 61.28 60.24 59.15 59.35 59.59 60.08 60.02 59.90 60.07 59.54 59.69 59.88 61.04 60.76 63.96 62.74 64.49 63.94 63.83 62.67 61.56
49.28 54.37 55.15 55.44 56.08 54.52 52.80 54.70 53.44 51.98 51.83 53.96 54.98 57.41 56.24 55.05 54.30 53.84 53.56 53.20 53.63 54.92 55.27 55.94 58.06 58.55 58.79 60.16 59.99 59.73 60.03 59.39 58.93 59.26 59.78 59.35 58.87 58.46 58.78 59.83 60.48 60.02 60.95 60.84 61.10 61.13 61.19 61.88 61.77
51.84 53.89 55.43 55.88 54.97 54.69 55.25 52.81 52.37 51.78 54.76 55.38 55.50 55.99 55.83 55.40 54.21 53.63 53.31 53.42 53.38 54.68 56.64 57.36 58.12 59.31 60.26 60.18 60.08 59.75 59.66 59.80 59.38 59.09 59.93 60.07 58.79 58.35 61.25 61.35 60.65 59.22 59.66 59.89 59.85 60.35 60.76 60.58 61.02
54.10 54.57 54.70 55.31 54.94 55.10 53.53 53.79 51.57 53.42 55.46 54.62 53.65 53.71 54.15 53.60 53.94 52.49 53.33 53.26 53.99 55.58 57.15 57.59 58.35 59.87 60.53 59.78 59.66 59.98 59.73 60.71 60.34 60.25 60.48 60.49 59.57 59.83 60.78 58.42 58.80 58.06 58.34 59.21 59.43 59.67 59.39 59.80 59.91
51.62 49.86 52.69 53.47 52.13 51.36 53.49 49.72 50.34 53.77 54.23 52.96 52.18 52.37 53.40 54.06 54.10 54.33 55.03 54.80 54.87 54.74 57.14 57.25 58.69 59.57 60.01 59.56 59.50 59.46 60.09 61.19 60.55 60.57 60.44 60.17 59.65 59.56 59.00 58.03 58.07 58.39 58.20 58.33 58.83 58.86 59.28 58.99 59.75
46.20 45.86 42.17 48.73 50.88 52.33 50.10 46.22 51.97 53.71 52.57 52.39 52.86 52.14 52.41 52.29 54.64 54.59 55.01 54.75 53.69 54.82 56.39 57.75 60.92 58.75 59.00 58.11 59.13 60.47 61.08 60.49 60.35 60.19 60.45 60.90 60.85 60.11 58.60 57.95 58.01 58.40 57.56 57.56 57.72 57.91 57.93 58.21 58.51
42.75 39.93 41.85 44.64 50.16 51.04 48.86 47.88 52.60 54.09 52.57 51.99 52.03 52.31 53.08 52.61 52.49 53.56 55.23 55.56 53.96 55.77 55.98 57.07 57.75 57.99 58.06 59.22 59.64 60.31 60.61 60.14 60.89 60.43 60.27 60.20 60.38 60.14 58.22 58.31 58.27 58.10 57.26 56.76 57.12 56.64 57.58 57.08 57.56
40.00 39.67 43.06 44.32 49.07 49.58 48.58 48.22 51.61 53.09 52.61 52.17 51.55 52.30 52.56 51.93 52.64 54.60 55.47 55.15 54.30 55.88 56.87 57.74 58.10 58.21 59.48 59.38 58.87 59.93 59.48 60.77 61.11 61.06 60.27 60.24 59.84 60.15 58.84 58.33 58.22 57.96 56.38 56.14 56.74 56.30 57.42 57.46 57.42
44.76 43.00 42.47 46.85 50.01 47.83 47.77 48.67 50.73 52.00 51.25 50.90 50.38 50.94 51.54 51.54 53.21 55.10 56.56 55.52 55.03 56.24 57.19 57.29 57.69 58.05 58.70 57.19 58.00 57.48 58.04 59.26 60.27 61.46 61.41 61.30 59.65 59.70 58.29 58.39 58.02 57.48 56.36 56.02 56.56 56.74 56.60 56.88 57.43
44.13 43.22 43.01 46.60 49.24 47.33 47.31 47.21 50.88 51.21 50.50 50.36 50.78 50.94 50.43 51.13 53.54 55.44 55.08 54.53 55.06 56.22 57.33 57.68 58.12 57.60 58.23 57.43 59.53 58.53 58.87 59.38 59.92 60.36 60.79 61.45 60.78 61.16 59.41 58.78 57.92 57.56 56.74 56.18 56.82 56.82 55.88 56.28 57.57
43.59 42.58 44.02 44.13 47.85 48.84 46.36 45.00 46.85 50.84 51.47 51.94 51.55 51.68 51.65 52.00 52.75 54.33 54.98 53.79 54.27 55.59 56.96 58.22 58.04 58.46 57.49 58.98 59.22 58.65 58.45 58.64 59.36 59.81 60.53 59.88 60.39 61.63 60.15 59.31 58.06 57.78 56.96 56.18 56.20 56.90 56.64 55.74 57.06
40.93 47.44 47.23 46.83 44.45 38.70 46.36 36.53 42.34 47.17 47.72 49.29 49.85 49.76 50.79 52.03 53.29 54.62 54.52 53.26 54.06 54.67 56.60 58.25 58.43 57.27 58.23 58.89 58.21 57.68 57.04 56.24 57.72 58.18 58.87 59.46 59.98 60.45 60.17 59.31 58.81 58.13 57.24 56.28 57.06 58.26 57.52 57.40 56.40
43.90 47.91 46.72 46.63 44.25 41.25 43.11 37.28 41.05 45.21 45.72 48.26 49.27 49.51 50.29 52.13 53.09 53.89 54.54 54.85 54.65 56.59 56.41 57.81 57.00 57.90 59.15 58.50 58.40 58.50 56.59 57.68 58.08 57.60 57.76 58.09 60.06 61.12 60.38 59.35 58.60 57.61 57.48 57.26 58.57 57.50 57.92 58.04 57.83
48.90 46.55 45.68 45.25 42.67 36.24 41.86 39.95 42.07 42.67 46.44 47.53 48.77 50.60 50.79 50.82 52.02 53.63 55.60 55.16 54.69 55.36 56.06 56.71 55.62 56.69 58.46 58.82 58.67 58.00 56.99 57.15 56.62 56.32 56.86 57.12 57.75 60.31 59.07 59.60 58.04 57.82 57.39 57.78 57.91 58.15 58.25 57.48 59.18
46.29 41.62 34.52 30.01 32.48 33.92 41.82 39.00 41.16 45.96 48.48 49.43 48.01 49.67 50.20 51.67 52.81 54.45 54.70 54.16 53.85 54.38 55.49 55.96 56.24 56.65 57.63 57.82 58.45 57.54 58.03 57.09 56.02 55.94 56.52 55.72 55.92 56.24 56.72 57.75 58.34 57.47 58.27 59.16 58.84 58.51 59.88 57.69 59.38
41.79 40.58 36.75 29.04 29.82 34.58 42.64 37.34 42.68 48.20 49.75 50.40 50.67 51.24 51.31 50.90 53.34 54.32 54.84 53.98 53.83 54.47 55.32 55.71 55.66 54.72 55.45 57.44 57.86 57.27 58.37 57.38 56.12 57.08 57.14 56.54 56.14 56.52 57.08 58.31 58.66 59.36 59.70 60.28 59.50 60.32 60.60 59.79 59.31
41.45 39.84 44.40 37.89 38.20 34.87 37.72 42.36 47.25 48.68 48.00 50.56 50.90 51.53 50.39 51.06 52.52 54.04 54.48 53.31 52.27 53.54 54.75 55.03 55.87 55.12 54.68 57.02 57.80 58.25 58.89 58.06 57.56 57.18 57.46 57.10 56.98 58.20 58.29 58.60 58.24 59.46 59.97 59.63 60.57 60.82 60.50 61.14 60.84
42.99 45.02 38.74 36.17 31.22 29.15 35.40 37.98 39.43 43.51 46.24 49.90 49.82 49.40 49.86 51.24 52.85 54.19 54.16 52.87 51.93 53.52 53.36 53.11 56.13 54.69 56.20 57.21 56.55 59.32 60.78 59.46 58.71 57.78 57.36 57.40 57.08 57.57 58.33 58.65 58.91 59.27 59.59 59.71 60.59 59.92 59.68 61.44 61.81
40.31 39.99 40.90 40.44 37.33 32.36 29.13 35.68 43.73 45.71 46.27 49.72 50.17 51.07 51.03 51.93 53.38 54.11 53.35 53.07 52.43 52.60 51.78 53.24 55.48 54.70 55.20 56.53 56.85 60.32 60.23 59.99 59.61 58.86 57.28 57.78 57.59 58.11 58.85 59.15 59.51 59.65 59.60 59.63 59.77 59.22 60.00 61.19 61.46
43.67 41.76 41.59 39.04 34.78 36.22 35.82 37.10 47.01 47.38 48.87 51.72 50.73 52.05 52.01 53.06 53.73 54.00 53.36 53.07 52.18 51.91 52.36 54.99 54.51 54.65 54.60 55.98 56.09 58.77 60.32 59.63 59.25 58.50 58.24 58.34 58.12 58.60 59.13 59.95 60.19 60.23 59.68 59.86 60.47 60.21 60.50 60.32 60.34

GFSSGP_sfc_wetblb_003.txt.gz
Wetbulb
66.79 65.10 60.31 55.85 49.76 47.37 44.43 47.67 50.66 51.55 48.64 51.15 51.03 50.04 49.06 49.40 49.29 45.23 57.84 64.77 63.38 63.51 67.34 72.80 74.25 74.07 73.26 72.99 72.67 72.18 71.83 71.16 70.39 69.97 69.48 68.59 68.22 67.76 67.80 67.81 67.91 67.53 67.23 67.07 67.19 67.11 67.08 67.15 67.91
64.01 62.03 57.21 55.35 46.62 42.71 44.74 50.74 50.60 51.35 51.22 51.13 50.67 49.92 50.08 50.81 57.97 58.26 61.33 65.17 65.37 65.66 68.78 71.41 74.34 74.12 73.57 73.25 73.03 72.58 72.01 71.26 70.75 69.92 69.21 68.82 69.06 69.20 68.68 68.46 68.46 68.76 68.61 68.33 68.02 67.67 67.54 67.56 67.39
61.02 58.00 52.34 51.40 46.09 43.59 45.07 51.20 52.52 54.15 54.00 51.12 49.89 52.69 52.59 53.46 59.12 58.84 61.53 65.31 64.76 66.43 69.18 70.50 74.39 74.07 73.97 73.70 73.45 73.00 72.90 72.04 71.01 70.00 70.03 69.92 70.32 69.83 69.66 68.97 68.89 69.36 69.55 69.43 69.34 68.55 68.17 68.02 67.70
58.10 58.12 55.44 47.89 45.50 48.82 50.21 53.87 55.03 52.96 50.21 50.25 51.76 51.41 54.40 58.01 58.89 59.71 65.77 65.03 64.93 65.97 68.28 71.22 74.37 74.14 74.10 74.02 73.80 73.44 72.68 72.21 71.44 70.81 70.87 70.63 70.06 69.66 69.44 69.59 69.31 69.04 68.91 68.89 69.42 69.54 68.92 68.41 68.73
59.38 55.04 48.72 45.32 46.64 49.89 52.29 53.85 49.97 49.17 49.57 49.53 52.03 51.22 52.08 57.15 60.89 64.04 66.16 65.19 63.89 64.29 66.93 70.03 74.59 74.36 74.29 74.27 73.42 72.93 72.55 72.45 72.33 71.22 71.02 70.51 69.92 69.87 69.27 69.02 68.56 68.46 68.29 68.36 68.78 69.15 69.53 68.95 68.81
53.48 51.08 42.35 40.58 44.72 49.36 51.16 52.84 50.75 50.76 50.98 50.75 51.45 51.63 52.05 57.42 59.90 64.58 66.54 64.83 65.11 65.60 67.11 70.57 74.39 74.29 73.99 74.02 73.65 73.24 72.93 72.86 71.91 70.53 69.80 69.36 69.16 68.82 68.82 68.68 68.32 67.93 67.77 68.00 68.18 69.51 69.37 69.28 69.55
51.26 47.38 43.40 43.28 47.07 48.51 50.68 52.02 49.68 49.54 50.05 51.03 52.74 50.30 52.23 55.57 58.72 61.62 62.32 63.41 65.51 67.03 68.58 70.83 72.12 73.23 74.24 73.79 73.51 73.32 72.24 70.96 70.05 69.02 67.61 65.98 65.63 65.69 66.03 66.30 66.85 66.99 66.94 67.25 67.63 68.93 69.33 68.82 68.97
53.09 49.12 44.39 44.90 44.66 46.07 51.57 50.64 49.41 49.98 51.36 53.43 56.70 51.30 51.17 55.66 58.09 56.39 59.82 63.43 64.89 66.95 68.70 69.53 69.36 70.02 69.85 70.52 73.04 72.43 70.99 69.73 68.33 66.18 65.77 65.73 65.58 65.34 65.22 65.34 65.63 65.94 66.23 66.12 66.65 67.03 68.53 68.70 68.05
53.92 45.43 43.38 45.31 46.00 48.14 52.09 48.28 52.81 54.38 51.62 52.70 53.29 54.97 57.03 57.96 56.10 54.91 55.17 56.92 58.60 63.38 64.17 65.64 65.94 65.36 65.58 66.95 68.97 70.61 69.68 67.63 66.64 66.14 66.38 65.63 61.54 60.77 62.01 63.11 64.43 65.51 66.30 66.47 66.18 66.90 68.00 67.78 67.02
50.41 44.77 46.31 51.43 50.84 49.31 51.06 51.50 53.46 51.05 51.76 50.38 52.99 56.17 58.39 57.38 55.70 54.85 54.32 55.05 54.63 58.39 59.86 62.61 62.54 63.41 63.88 66.19 64.54 63.87 63.21 62.30 62.50 62.78 61.20 59.84 59.12 59.06 60.85 63.17 65.15 65.75 66.13 66.20 66.71 66.83 67.02 66.71 62.70
50.15 47.90 52.02 52.36 53.75 52.87 51.86 52.48 54.92 50.69 50.74 52.53 51.43 52.96 55.30 54.77 54.46 54.96 54.91 55.64 56.41 57.48 56.66 58.79 59.57 60.74 61.75 62.38 62.05 61.76 60.53 59.88 60.30 60.60 59.61 58.60 59.10 58.85 59.32 58.94 59.50 59.89 63.14 61.98 63.13 63.47 63.00 62.68 61.11
47.45 52.03 53.65 53.70 54.89 53.30 51.91 54.54 52.76 53.23 52.64 55.94 55.40 55.42 55.23 53.81 53.67 54.65 54.40 54.39 52.07 53.17 54.99 57.01 57.79 58.15 59.15 59.77 60.06 60.15 58.80 58.92 58.24 58.98 59.27 58.38 57.88 57.80 57.51 57.82 58.94 59.33 59.74 59.82 60.04 60.74 61.20 60.97 61.00
49.03 51.84 53.54 54.55 53.93 53.94 54.59 52.59 52.60 53.36 55.97 56.13 53.66 55.33 55.26 55.01 54.51 54.61 55.50 54.04 51.71 52.82 54.28 55.98 56.97 57.29 58.14 58.88 58.88 58.74 58.78 59.30 58.66 58.53 58.64 58.70 57.94 57.52 57.58 59.32 60.65 60.93 60.59 60.11 58.89 59.40 59.78 60.41 60.87
51.34 52.28 53.11 54.40 54.38 54.52 52.77 53.41 54.25 55.18 56.61 54.93 53.05 53.57 54.70 55.05 54.53 53.25 51.63 51.80 51.81 53.58 54.62 56.23 57.14 58.51 59.30 58.77 58.57 58.86 58.88 58.94 58.72 58.94 59.18 59.88 58.82 58.00 58.14 60.35 59.81 57.82 57.47 58.03 58.50 58.94 58.86 58.96 59.10
48.63 45.80 48.67 50.93 52.59 51.86 53.21 49.82 50.33 54.35 54.30 52.64 52.65 52.13 53.92 54.85 55.10 53.59 54.77 52.94 53.32 54.96 55.85 56.78 57.56 59.01 59.17 58.43 58.71 58.61 58.84 59.43 59.12 59.70 60.13 60.23 58.95 58.20 59.08 58.52 57.34 57.52 57.44 57.51 57.74 57.72 58.14 58.02 58.48
43.32 43.56 40.40 47.43 50.49 52.49 49.18 45.32 51.18 53.78 52.22 51.56 52.24 51.42 52.30 53.31 53.95 55.15 53.35 52.86 53.29 55.28 56.27 56.60 60.11 58.95 58.50 57.69 57.88 58.23 59.03 59.00 59.30 59.50 59.66 60.42 60.10 59.27 58.28 57.40 56.87 57.60 57.20 56.59 56.33 56.47 56.57 56.92 57.04
39.55 38.11 39.04 43.45 48.14 48.14 46.90 45.48 51.48 53.25 51.17 50.80 51.24 50.82 50.42 51.83 51.94 52.33 53.24 52.65 52.76 55.72 55.69 56.53 57.93 57.89 57.97 57.23 57.60 58.76 59.24 59.04 59.46 59.36 59.22 59.95 60.96 61.29 58.30 57.10 57.02 57.45 56.29 55.75 55.77 55.55 56.35 55.89 56.27
36.65 36.94 41.30 41.67 45.38 46.89 46.19 46.06 50.66 52.84 51.63 50.45 51.58 51.93 51.03 50.99 51.12 52.43 52.72 52.79 53.11 54.39 55.61 56.32 56.77 56.99 57.13 58.00 57.40 57.83 58.17 58.59 59.60 59.74 59.83 59.99 60.27 60.35 57.67 56.59 57.12 57.10 55.63 55.03 55.03 54.90 56.25 56.11 55.87
42.12 40.29 40.22 43.59 47.10 46.27 44.97 45.68 48.95 51.56 49.97 50.32 51.00 50.93 50.56 50.92 50.59 52.09 53.02 53.09 54.38 54.78 55.57 56.46 56.45 56.81 57.52 56.61 55.85 56.41 56.69 57.49 58.21 59.86 60.71 60.89 61.06 59.60 57.87 56.83 57.04 56.61 55.43 54.79 55.59 55.38 55.12 55.29 55.95
42.03 40.16 40.53 44.65 47.30 45.31 45.06 45.00 48.25 49.62 49.92 50.95 51.65 49.79 49.97 49.24 50.73 52.37 52.19 53.25 54.69 55.31 56.12 56.35 56.67 56.98 57.14 55.91 57.57 57.17 57.03 57.87 58.55 59.22 61.47 61.91 60.76 59.71 58.53 57.81 57.16 56.53 55.25 54.61 55.43 55.44 55.27 55.09 56.09
41.54 40.06 41.02 41.53 45.41 46.29 44.76 43.03 46.00 49.37 49.89 50.78 50.37 49.57 49.81 50.55 50.71 52.05 52.15 52.67 53.86 55.44 55.67 56.60 56.49 56.61 57.03 56.97 57.81 57.21 56.95 57.49 57.79 57.82 58.22 58.70 59.59 60.04 59.63 58.67 57.35 56.33 55.69 54.69 54.67 55.42 56.09 54.59 56.09
39.24 45.53 44.85 43.50 41.20 37.51 44.16 33.61 41.69 45.27 47.24 47.99 49.52 48.84 49.94 50.11 51.60 52.69 52.82 51.53 53.99 54.82 56.24 57.05 56.75 56.71 56.70 58.61 57.02 56.17 55.52 54.90 55.97 56.51 57.34 57.73 59.30 60.21 59.49 58.70 57.47 56.71 55.97 54.89 55.01 56.65 55.80 55.82 54.99
41.99 46.82 45.25 43.84 40.70 38.42 41.68 36.15 39.68 43.27 44.34 45.85 47.62 47.82 48.21 49.35 51.39 52.39 52.47 52.90 53.74 54.39 55.44 56.31 56.87 55.71 57.38 57.82 57.31 57.27 55.36 55.77 56.37 56.45 56.35 56.63 58.48 60.33 59.49 58.20 57.35 56.39 56.19 55.40 56.07 56.21 56.06 56.19 55.61
46.22 43.68 42.29 41.46 38.46 33.11 40.25 37.42 39.48 41.54 44.48 45.90 47.71 48.94 49.16 48.73 50.88 51.88 52.48 53.13 53.03 54.02 54.98 55.88 55.18 56.62 57.20 57.48 57.42 57.04 55.73 55.76 55.00 55.33 55.19 55.51 56.35 59.64 57.82 58.20 56.87 56.39 56.15 56.99 57.01 56.65 56.53 56.69 57.03
42.85 38.05 30.70 26.90 30.21 31.34 40.46 37.11 41.35 45.40 47.27 48.32 48.63 47.72 48.12 49.56 51.26 51.88 52.57 52.01 52.66 53.07 54.54 54.48 54.29 55.64 56.88 57.92 57.90 56.63 56.55 56.27 55.30 55.00 55.07 54.13 54.59 56.87 55.44 56.63 56.37 56.03 57.32 57.56 57.43 57.31 57.01 56.39 57.67
40.86 40.72 32.56 26.79 27.79 32.32 40.72 36.20 41.75 47.40 49.58 49.18 49.55 48.22 49.10 49.52 51.51 52.38 52.70 52.70 52.78 53.55 54.39 55.46 54.24 55.39 55.40 57.15 57.29 56.03 57.16 55.48 54.92 55.22 55.59 54.73 54.49 55.07 55.62 57.03 57.64 58.19 58.95 58.89 58.51 58.56 58.42 57.79 57.79
40.15 37.63 43.06 35.43 35.96 33.31 36.29 40.54 45.48 46.67 46.48 47.99 47.96 48.85 47.98 49.27 51.33 52.37 52.80 52.22 52.59 53.26 53.86 54.51 54.09 53.40 54.12 56.62 56.70 56.31 56.79 55.36 55.82 55.66 55.49 55.07 55.33 56.43 56.67 57.36 57.41 59.02 58.73 58.77 59.48 59.59 59.25 59.20 58.92
40.38 42.68 34.77 33.08 27.40 26.57 34.34 36.58 38.59 42.55 44.69 47.57 47.57 47.17 47.59 49.68 51.22 52.58 52.59 51.77 52.33 53.16 53.72 53.79 54.91 54.17 53.97 56.19 56.69 57.50 58.87 57.04 56.07 56.29 55.83 55.28 55.74 56.19 56.53 57.05 57.71 58.27 58.51 59.30 59.32 58.93 61.37 61.83 60.90
37.11 38.36 36.45 38.24 35.91 29.79 28.05 34.88 42.53 44.33 45.45 47.50 47.57 47.92 48.59 50.44 51.88 52.70 51.95 51.93 51.72 52.24 52.31 52.85 54.52 53.62 54.66 55.74 55.70 59.07 58.30 58.38 57.01 56.81 56.31 55.88 55.32 56.31 56.89 57.51 58.13 58.31 58.40 58.74 58.42 59.51 61.12 61.32 61.53
42.62 39.94 39.72 35.21 32.83 34.46 35.09 38.40 45.48 44.64 45.05 48.40 48.15 49.32 49.15 51.03 52.47 52.53 52.39 50.91 50.10 50.95 50.43 51.93 53.90 53.73 54.73 55.54 55.95 58.12 58.56 58.56 57.19 56.25 56.00 56.03 56.27 56.81 57.73 58.61 58.71 58.82 58.54 58.44 59.82 58.87 59.49 60.88 60.89

GFSSGP_sfc_wetblb_006.txt.gz
Wetbulb
67.03 63.12 58.84 55.54 48.66 46.60 43.37 46.82 49.41 50.27 50.12 49.77 50.20 49.22 48.49 49.25 52.43 46.35 57.98 63.73 61.34 61.99 66.29 72.71 74.31 73.66 72.92 72.93 72.63 72.31 71.47 70.65 69.83 69.15 68.17 67.69 67.41 67.41 67.52 67.52 67.48 67.45 67.45 67.63 67.15 66.95 66.87 66.72 66.71
64.65 61.94 57.73 54.90 45.62 41.69 43.87 49.39 49.88 51.47 53.05 49.60 49.23 49.19 49.08 49.28 56.58 58.23 60.22 63.85 61.69 63.84 66.91 71.50 74.35 73.98 73.53 73.08 72.96 72.59 72.07 71.07 70.25 69.60 68.66 67.96 68.21 67.85 68.15 68.21 68.25 68.41 68.40 68.67 68.50 68.15 67.75 67.24 67.18
60.84 58.02 54.74 51.41 45.98 43.09 44.04 50.12 50.85 53.48 54.55 52.34 48.89 51.39 51.51 52.38 57.66 58.47 61.77 64.36 63.80 64.34 68.26 70.59 74.40 74.08 73.66 73.36 72.94 72.64 72.32 71.67 70.72 69.40 68.95 69.05 69.08 69.78 70.06 68.77 68.62 68.77 69.13 69.62 69.28 68.86 68.76 68.08 67.78
57.46 57.18 54.41 47.59 45.70 48.46 48.90 52.26 53.48 51.42 52.30 49.85 50.07 50.17 53.29 56.63 58.05 59.81 63.27 64.37 64.45 65.21 68.39 70.96 74.23 74.05 73.76 73.51 73.39 73.03 72.42 72.02 71.33 70.04 69.82 70.15 70.10 69.85 69.55 69.41 69.38 69.13 69.32 68.99 68.47 69.29 69.47 69.14 68.55
58.21 54.53 47.86 43.95 47.06 49.78 52.01 53.32 51.90 49.86 48.10 48.52 50.30 50.04 51.26 56.02 60.11 62.27 63.77 64.57 63.76 65.24 67.19 69.49 74.03 74.10 73.88 73.88 73.58 73.41 72.76 72.44 72.24 71.13 70.35 70.68 70.17 69.85 69.49 69.40 69.06 68.98 69.05 68.64 68.38 68.75 69.92 69.50 69.14
53.01 50.82 42.96 41.42 45.53 49.54 50.23 52.64 50.57 49.50 49.25 49.37 49.95 50.37 51.63 56.10 59.55 63.00 63.46 62.94 63.79 64.37 65.57 68.34 73.56 74.02 73.80 73.91 73.68 73.28 73.02 72.58 72.38 72.00 71.31 70.47 70.03 69.71 69.27 68.86 68.85 68.71 68.45 68.00 67.71 69.01 69.60 69.78 69.05
50.94 46.44 42.84 43.17 45.47 47.47 50.25 51.67 49.18 48.19 48.77 49.97 50.46 49.07 51.08 54.26 58.44 64.25 63.31 61.93 62.89 63.97 65.87 68.31 71.21 73.01 74.00 73.65 73.35 73.14 72.62 72.46 72.65 71.84 70.70 69.56 68.95 67.25 66.78 66.66 67.10 67.52 67.65 67.35 67.52 67.62 68.60 69.25 68.32
52.97 47.84 43.05 44.39 43.55 45.23 50.54 49.62 49.66 49.40 51.39 53.28 55.15 49.33 49.49 54.05 58.21 60.26 61.46 61.57 62.92 64.24 65.58 67.91 70.39 71.19 71.06 71.61 73.67 73.31 72.89 72.12 71.09 69.76 68.96 66.40 66.03 65.94 65.57 65.48 65.35 65.79 66.00 66.04 66.56 66.90 67.27 68.30 68.27
52.76 44.91 42.00 43.55 44.37 46.63 48.75 47.62 51.43 53.85 51.05 51.10 53.31 52.99 55.28 57.03 56.10 57.66 58.74 59.87 61.67 64.68 65.65 67.24 68.44 68.34 68.28 68.93 71.13 72.86 71.11 70.20 69.48 67.52 66.32 66.66 63.32 62.18 63.24 63.69 64.21 64.59 65.52 66.00 66.24 66.26 67.04 67.52 67.20
49.36 44.35 45.09 50.16 49.45 48.23 48.70 49.57 51.77 51.00 52.36 50.47 51.60 53.84 55.79 55.77 55.15 56.08 56.46 58.52 58.94 61.94 63.40 65.66 65.61 65.73 65.73 67.35 66.46 66.43 65.70 64.44 62.87 63.36 62.67 62.26 61.37 61.06 62.20 63.16 64.16 65.07 65.74 66.07 66.58 66.87 66.70 66.60 64.72
49.00 47.23 51.22 51.88 52.57 50.79 51.03 51.38 52.75 51.83 51.15 53.62 51.67 54.04 53.75 54.03 53.67 54.81 56.52 58.65 60.02 61.23 63.26 63.38 63.59 63.13 63.49 64.03 63.17 62.76 61.45 61.28 61.34 61.91 61.81 60.70 59.93 59.28 60.56 60.47 60.61 60.54 62.62 63.05 63.40 63.40 64.23 64.61 63.63
45.92 50.58 52.61 52.90 53.52 51.47 50.77 52.72 52.81 53.54 53.64 56.50 55.74 55.35 54.15 53.27 52.56 53.59 54.61 56.79 55.67 55.32 59.39 60.88 61.40 61.42 61.36 61.50 61.37 61.50 60.21 59.50 59.34 59.75 60.65 59.14 58.78 58.61 58.75 58.72 59.38 59.84 60.95 61.14 61.68 62.01 62.76 63.28 63.14
47.45 50.64 52.24 52.69 51.84 52.86 52.97 51.61 52.36 53.26 56.45 57.14 56.15 53.64 52.47 53.31 54.10 54.89 55.98 56.15 53.52 52.42 54.61 58.27 58.80 59.34 59.80 59.43 59.43 59.62 59.19 59.68 59.11 58.95 59.27 59.12 58.37 58.33 58.85 58.99 59.48 60.79 61.84 61.22 61.45 61.11 61.54 61.88 62.39
49.45 50.79 51.57 51.51 52.61 53.42 51.68 52.03 53.48 54.88 57.32 55.81 55.11 53.33 52.40 53.42 53.95 53.48 52.35 53.36 51.74 52.19 53.89 56.55 57.77 58.04 58.33 58.33 58.35 58.95 58.77 59.24 59.20 58.91 59.33 59.88 59.22 58.91 58.71 59.00 59.99 60.30 60.05 59.92 60.30 60.26 60.82 61.00 61.91
46.49 43.79 45.63 47.35 48.93 48.93 51.25 47.88 49.60 54.55 54.65 52.04 52.49 52.88 52.02 53.43 54.10 53.28 54.77 55.03 54.19 52.13 54.32 56.87 57.38 57.81 58.22 58.22 58.53 58.73 58.85 59.30 58.89 59.42 59.84 60.43 60.11 59.55 59.33 59.56 59.72 59.01 59.31 59.31 59.29 59.65 60.23 60.19 60.41
41.77 41.56 37.44 44.69 47.77 48.65 48.77 42.69 50.21 53.29 51.77 51.50 52.08 52.45 51.56 51.64 54.02 55.29 55.38 54.17 51.73 53.37 55.23 56.49 58.94 58.31 58.33 57.97 57.99 58.52 58.73 58.61 59.12 59.52 60.16 60.74 60.84 60.04 59.17 59.26 58.73 58.99 58.85 58.87 58.30 58.57 58.73 59.15 59.27
38.17 36.93 37.86 40.60 46.34 46.09 47.03 43.60 49.76 50.57 50.17 49.92 50.80 51.25 51.56 51.15 51.37 53.76 53.57 51.47 53.27 54.45 55.24 56.32 58.06 57.94 58.12 57.33 57.24 57.74 58.99 59.17 59.58 59.72 59.73 60.29 61.15 61.04 59.57 58.96 58.73 58.80 58.51 57.97 57.75 57.57 58.31 58.01 58.33
34.86 35.18 38.10 39.12 43.85 44.91 43.25 43.73 48.34 50.55 49.94 49.48 49.75 50.16 50.35 50.50 51.41 52.28 51.79 51.70 53.94 54.96 56.06 57.08 57.42 57.60 57.56 57.01 57.24 57.87 58.13 58.93 59.44 60.22 60.39 60.69 60.85 61.84 60.22 58.94 58.23 58.67 57.83 57.03 56.75 57.15 58.09 58.36 58.50
40.03 38.63 37.78 39.82 45.23 43.76 42.25 43.04 46.01 49.21 47.84 47.60 49.05 50.03 50.32 50.40 50.59 50.85 51.46 51.96 54.12 55.28 55.72 56.14 56.22 56.32 56.53 56.67 56.25 56.59 57.14 58.02 59.12 60.43 61.35 61.34 61.63 61.31 59.19 58.49 57.97 58.35 57.31 57.11 57.03 57.17 57.16 57.59 58.41
40.40 37.76 37.59 41.58 45.91 44.34 42.93 42.73 45.93 47.80 48.20 48.00 49.51 50.15 50.36 48.39 49.93 50.78 50.15 51.98 54.24 55.25 55.89 55.75 56.29 56.20 56.98 56.36 57.14 57.68 57.48 58.31 59.15 60.10 61.43 61.91 61.80 60.94 59.24 58.26 58.73 58.11 57.15 56.55 56.87 57.25 56.65 57.07 58.25
39.51 38.44 39.02 38.73 44.70 44.58 42.42 40.67 43.17 47.36 48.05 48.45 49.07 49.60 49.11 48.58 49.57 50.25 49.88 51.21 54.01 54.76 55.62 56.29 56.40 57.01 57.09 57.05 57.76 57.55 57.55 57.81 57.99 58.63 59.37 59.89 60.25 60.74 60.30 59.39 58.95 58.19 57.15 56.27 56.39 57.29 57.52 56.39 57.13
37.72 43.65 42.54 41.86 40.95 34.65 41.88 31.51 40.57 43.67 46.38 46.99 47.99 47.28 48.49 48.77 50.18 50.13 49.86 51.26 53.68 54.79 56.12 56.37 56.43 56.78 57.27 57.70 56.73 56.48 56.27 56.03 56.67 57.75 58.41 58.95 60.12 60.57 60.21 59.83 59.16 58.19 57.37 56.51 56.85 57.86 58.56 58.42 57.25
41.03 45.79 42.93 43.31 39.32 35.01 37.78 33.66 38.71 41.83 42.50 45.88 47.20 48.06 47.57 47.36 50.00 49.61 50.05 52.56 54.44 55.20 55.85 56.18 56.36 56.66 57.02 57.88 57.37 57.44 56.58 56.59 57.43 57.49 57.81 58.88 59.16 61.01 60.07 59.26 58.44 58.17 57.73 57.53 57.25 57.83 57.97 58.69 58.41
45.48 41.94 40.45 38.94 35.77 30.77 37.19 35.80 35.08 39.64 43.79 45.07 46.64 47.65 48.70 47.96 49.76 49.95 51.15 53.62 52.97 54.34 55.56 55.86 56.11 55.77 56.94 57.33 57.61 57.70 56.41 56.77 56.19 56.71 56.61 56.87 57.71 59.57 59.36 58.95 58.87 58.39 58.28 58.00 57.97 58.34 58.40 58.48 58.83
41.53 35.76 27.77 25.27 25.60 28.18 38.76 35.20 38.91 43.15 45.31 46.74 47.55 47.49 47.47 48.70 49.58 50.21 51.42 51.76 52.14 53.27 54.86 55.40 55.48 55.61 56.57 57.38 57.94 57.13 57.24 56.92 56.42 56.59 56.43 56.07 56.53 58.17 57.88 58.29 58.20 58.65 58.91 59.14 58.86 58.93 58.89 58.70 59.56
39.89 37.84 29.05 24.11 26.35 32.28 38.20 33.83 39.90 45.99 48.26 48.21 48.67 47.50 47.94 49.04 49.83 50.49 51.59 51.88 52.59 53.42 54.56 54.90 54.44 55.38 56.66 57.40 57.57 57.18 57.58 56.57 56.19 56.57 56.67 55.97 56.17 56.93 57.87 58.68 59.18 59.69 60.44 59.96 59.83 59.99 59.61 59.36 60.41
39.29 34.34 40.35 33.76 35.76 30.97 33.80 39.36 44.46 45.82 46.69 46.93 46.42 47.27 46.87 48.42 49.49 50.36 51.27 51.84 52.43 53.35 54.35 54.57 53.90 55.03 56.01 56.86 57.22 56.93 57.52 56.36 56.90 57.23 56.83 56.23 56.67 57.72 58.38 58.80 59.48 60.13 60.21 60.64 60.37 60.82 60.82 60.71 60.72
39.14 41.81 33.64 34.30 26.01 25.15 32.71 35.18 37.54 41.66 43.76 46.25 46.16 45.66 46.39 48.88 49.90 50.74 51.04 51.52 52.38 53.54 54.18 54.65 54.42 54.11 54.89 56.36 57.09 57.54 57.58 57.15 57.20 57.21 56.85 56.61 57.25 58.27 58.42 58.77 59.47 60.07 60.65 60.72 60.76 61.27 62.07 62.28 60.95
36.00 35.31 34.39 36.68 31.94 28.39 26.86 33.28 41.58 44.04 45.05 46.00 46.33 46.21 46.99 49.34 50.52 51.38 50.86 51.78 52.38 53.00 53.37 53.62 54.43 54.25 54.63 56.60 56.43 58.89 58.37 57.68 57.10 57.48 56.92 56.90 57.08 57.67 58.34 59.22 59.63 59.81 59.95 60.03 61.23 61.39 61.68 61.71 61.46
41.58 38.87 36.82 33.90 29.94 33.92 33.00 33.89 44.38 44.92 44.44 45.40 46.44 47.31 47.76 49.71 50.76 51.45 51.58 50.74 51.35 51.96 52.36 52.85 54.21 54.35 54.74 56.68 56.74 58.66 59.06 58.21 57.40 57.30 56.90 57.37 57.14 58.05 58.59 59.82 59.87 59.74 59.70 60.69 61.01 60.89 61.79 61.60 61.26

GFSSGP_sfc_wetblb_009.txt.gz
Wetbulb
67.58 65.27 62.32 59.71 52.26 53.36 49.49 52.49 55.37 55.74 55.94 55.77 55.60 54.87 54.87 56.50 57.16 52.59 65.33 68.10 68.39 64.58 67.70 73.36 74.30 73.75 73.17 72.69 72.24 71.95 71.49 70.81 69.99 68.93 68.28 67.63 67.39 67.05 67.07 67.23 67.41 67.51 67.62 67.67 67.61 67.25 67.03 66.81 66.94
65.57 62.07 62.32 59.61 51.52 47.82 52.68 55.69 55.73 57.44 59.15 59.70 55.99 54.75 54.04 54.26 58.89 62.21 65.81 68.30 68.16 65.79 70.26 71.27 74.55 73.98 73.67 73.13 72.81 72.29 71.94 71.19 70.66 69.95 68.92 68.28 68.20 67.96 67.76 68.17 68.15 68.10 68.27 68.15 68.92 68.69 68.58 67.89 67.24
62.87 60.65 60.05 57.59 54.16 51.10 52.76 55.87 57.23 58.90 59.52 56.37 55.72 55.45 55.42 56.44 61.30 63.38 67.87 68.56 66.82 66.83 70.50 72.45 74.43 73.93 73.83 73.68 73.21 72.89 72.44 71.87 71.12 70.09 69.69 69.42 69.49 69.65 69.61 68.91 68.99 68.60 68.72 68.69 69.59 69.54 68.96 68.93 68.36
59.84 61.46 60.48 52.73 51.01 54.52 55.29 57.42 58.76 58.81 57.55 55.53 54.64 54.32 57.96 60.60 61.87 64.25 68.45 68.04 66.83 67.12 70.50 72.00 74.30 74.05 73.88 73.80 73.41 73.13 72.84 72.29 71.65 70.76 70.53 70.33 70.39 70.55 70.58 69.67 69.74 69.25 69.28 69.27 69.57 68.96 69.62 69.67 69.32
63.90 61.97 52.54 51.16 51.33 54.47 57.57 59.47 59.11 57.28 56.67 55.54 54.70 53.93 56.69 60.14 63.26 65.15 68.25 68.04 66.70 66.96 70.13 71.49 74.28 74.17 74.10 73.98 73.71 73.31 72.96 72.51 72.17 71.70 71.06 70.89 71.23 70.49 70.12 70.10 69.48 69.44 69.25 69.27 69.16 69.42 69.87 70.15 69.33
57.94 59.63 50.88 47.56 49.51 53.53 56.29 58.27 57.69 56.17 56.72 55.77 54.56 54.58 57.29 61.00 63.11 66.15 68.22 68.72 68.29 67.72 69.17 71.58 73.76 74.22 74.02 73.78 73.51 73.41 72.93 72.68 72.56 72.24 71.75 71.55 71.48 70.37 70.03 69.68 69.54 69.33 69.13 69.00 68.89 69.35 69.60 69.55 69.87
55.84 54.76 49.11 49.33 48.70 50.85 53.49 57.52 55.74 56.08 55.26 56.03 56.82 53.97 58.25 60.32 63.05 66.04 67.93 69.27 68.75 69.05 69.23 71.09 72.48 73.95 74.12 73.77 73.35 73.22 73.16 72.74 72.54 72.24 71.89 71.52 70.27 69.59 68.64 67.34 67.24 67.48 67.90 68.17 68.41 68.19 68.97 68.88 68.36
58.21 56.23 49.74 50.59 48.57 49.53 54.15 55.34 55.47 55.64 55.68 57.91 58.07 54.68 57.04 61.48 62.78 66.75 67.79 67.98 67.67 68.74 69.52 70.44 71.97 72.55 72.51 72.60 73.82 73.56 73.35 72.95 72.50 72.57 71.57 70.07 68.54 66.32 66.08 66.43 65.76 65.81 66.27 66.77 66.94 67.72 67.78 68.12 68.66
57.71 51.82 48.71 49.33 49.38 51.76 54.77 54.22 56.25 58.20 57.44 57.46 57.45 59.03 60.71 61.54 62.48 65.10 66.32 66.34 66.80 67.26 69.02 69.98 70.89 72.22 72.13 71.73 72.39 73.47 72.88 72.16 72.12 70.69 69.44 68.18 66.81 66.90 66.07 64.97 65.08 64.76 65.02 65.86 66.26 66.40 66.69 66.77 67.15
55.33 51.29 50.79 53.96 54.35 53.34 54.35 54.74 55.71 55.67 55.99 56.49 57.83 60.19 60.20 60.76 61.16 62.16 64.22 64.44 65.40 66.35 67.55 69.05 70.86 71.33 71.74 71.35 72.42 72.15 71.38 70.36 69.91 69.27 68.02 67.75 68.05 67.21 65.96 65.23 64.77 64.63 65.14 66.00 66.36 67.11 66.55 67.44 66.26
54.75 50.84 54.47 54.91 55.68 55.55 54.71 54.96 56.92 54.91 53.91 56.56 56.54 58.77 60.73 61.54 61.00 61.37 63.21 64.59 65.11 66.84 67.80 68.42 70.19 71.43 71.30 70.95 71.38 71.03 69.83 69.58 69.23 68.12 67.81 67.55 66.53 66.28 65.61 65.15 65.35 65.60 64.57 64.82 65.43 65.54 65.10 66.54 67.01
51.19 54.44 55.10 55.60 56.38 55.62 54.28 56.09 54.24 56.19 56.69 59.38 59.77 60.36 60.33 60.27 60.69 60.86 62.36 64.34 65.21 66.03 67.23 68.76 69.88 70.29 71.37 70.43 69.96 69.29 68.37 67.98 66.89 66.91 67.57 66.89 66.08 65.71 65.06 64.26 64.76 64.61 64.48 64.75 65.44 65.36 65.64 66.27 66.80
52.03 53.31 55.23 56.24 56.32 56.17 56.41 54.10 54.80 55.11 57.64 59.40 59.75 60.14 60.14 60.85 60.83 61.46 62.07 63.77 65.31 65.05 66.33 68.03 69.25 69.82 69.81 69.42 68.46 68.07 67.43 66.41 66.61 66.53 66.70 66.35 65.88 65.39 65.14 64.85 64.69 64.65 64.31 65.01 65.11 65.30 64.84 65.35 66.14
53.17 53.49 53.89 55.20 55.25 55.69 53.88 53.98 55.30 56.12 58.90 58.29 59.07 59.37 60.01 60.38 60.38 60.74 61.07 61.42 63.09 64.05 64.39 66.82 68.13 69.47 68.76 67.70 67.55 66.97 66.95 66.74 66.38 66.04 65.96 66.05 65.44 65.08 64.68 64.47 64.51 64.91 65.26 65.06 64.90 64.44 64.42 64.10 65.26
53.28 50.45 52.81 53.28 54.04 53.40 53.40 49.59 50.25 55.37 56.46 55.94 56.91 58.14 59.20 59.85 60.15 59.84 61.93 62.42 63.28 63.23 63.17 65.16 67.39 68.13 67.29 67.06 66.62 66.07 65.86 66.12 65.75 65.91 66.59 65.92 65.93 65.87 65.51 65.02 64.95 65.95 66.32 65.34 65.08 64.71 64.64 64.04 64.46
47.10 47.48 43.91 49.11 50.17 50.76 49.96 45.63 51.90 55.15 55.09 55.21 56.53 57.25 57.50 59.15 60.26 61.19 61.98 63.02 63.43 62.30 61.31 64.03 65.12 66.12 66.47 66.19 65.73 65.47 65.60 65.74 65.66 65.87 66.05 66.06 66.31 66.32 66.01 65.32 64.84 65.68 65.24 65.21 63.80 63.49 62.73 62.81 63.33
45.24 41.84 42.84 45.26 49.54 48.79 49.86 47.30 51.51 54.27 54.10 53.70 55.06 55.98 56.89 58.07 60.05 62.23 61.86 62.50 61.88 61.28 62.18 62.81 64.57 64.89 65.18 65.76 65.41 65.54 66.06 65.33 65.51 66.00 65.94 66.23 66.07 66.15 65.13 64.92 64.84 65.48 63.97 63.48 63.61 63.11 62.68 61.95 62.43
41.65 41.28 43.22 43.20 47.75 47.52 47.01 47.29 50.76 52.48 52.81 53.21 54.64 55.92 56.63 57.05 58.65 61.47 61.21 60.84 60.48 61.25 63.10 64.21 64.13 64.59 65.04 64.75 64.56 64.73 65.04 65.38 65.95 65.90 65.91 66.39 66.21 65.93 65.37 64.76 64.19 64.40 62.96 62.56 62.67 62.87 62.64 62.58 63.15
45.56 44.55 44.32 47.33 48.19 46.05 46.05 46.59 49.34 51.96 52.77 52.84 53.85 54.67 56.25 58.08 59.92 57.84 58.29 58.91 59.78 61.28 62.26 63.46 63.81 64.47 63.71 63.03 62.63 63.53 63.62 64.83 65.26 65.88 66.67 66.77 66.75 66.13 65.76 64.87 63.56 62.07 61.93 63.07 62.94 62.51 61.53 61.32 62.94
43.54 42.69 43.02 45.32 46.55 46.45 46.19 46.09 49.65 51.14 51.63 52.95 54.25 55.23 56.20 57.91 58.72 57.04 56.89 58.32 59.91 60.53 61.86 63.07 63.70 63.83 64.04 63.95 64.34 65.41 65.54 65.59 66.01 66.77 66.67 66.60 66.19 65.95 65.14 63.38 62.72 62.02 62.30 62.94 62.51 62.06 60.49 61.93 63.02
42.37 41.49 42.24 42.56 45.77 47.05 45.89 44.21 46.84 50.60 52.71 53.53 54.17 55.55 56.81 57.15 57.98 57.51 56.10 57.57 59.67 60.30 61.33 62.62 63.32 63.86 64.46 65.11 64.47 64.89 65.32 65.12 64.76 65.11 65.92 66.04 65.09 64.44 64.91 64.31 63.55 63.63 63.14 62.54 62.41 62.00 61.50 60.80 61.50
39.58 44.81 43.99 43.15 42.12 38.48 46.46 37.34 45.34 48.11 49.35 51.32 52.94 55.32 56.55 57.53 57.15 57.33 56.23 56.97 59.04 60.26 61.93 63.37 63.73 64.24 64.61 65.02 64.75 64.95 63.94 63.49 64.59 65.06 65.13 65.47 64.11 64.42 64.56 64.82 63.77 64.14 63.44 62.67 62.09 62.44 62.64 62.79 60.90
42.26 45.98 44.48 44.21 42.61 42.70 42.60 39.73 43.55 47.95 46.76 49.63 52.43 54.24 56.97 56.00 56.19 56.88 56.77 57.68 59.32 60.84 62.15 63.28 64.04 64.41 64.70 64.99 65.28 64.61 64.67 64.52 65.01 64.76 64.05 64.41 65.18 64.48 63.76 64.33 64.33 64.12 63.14 63.36 62.76 62.62 62.36 64.08 63.14
47.30 45.49 45.35 44.90 42.95 35.88 41.15 40.46 40.87 44.68 47.22 49.46 53.07 55.31 54.86 55.22 55.91 56.25 57.38 58.57 59.42 61.41 62.26 62.85 63.42 63.93 64.41 64.82 65.15 65.86 64.55 63.82 63.09 63.45 63.47 63.71 64.36 64.06 64.36 63.50 64.01 64.18 63.82 63.47 62.94 63.21 63.32 63.28 64.34
45.95 43.01 35.82 34.12 34.33 33.80 43.09 40.53 41.48 47.85 49.56 50.80 52.48 55.32 55.17 55.68 55.73 55.82 56.57 57.75 59.30 60.55 61.81 62.46 63.19 62.77 64.01 64.42 64.75 64.80 64.28 63.71 62.75 62.99 63.29 62.91 62.47 62.12 63.76 63.99 63.85 64.53 64.47 64.36 64.00 63.60 63.59 63.59 63.36
43.63 42.53 37.18 31.14 33.18 36.93 42.58 37.60 41.50 50.69 52.27 52.49 54.39 55.71 55.16 55.86 56.06 56.37 57.37 58.44 59.42 60.83 61.67 62.37 62.81 62.71 63.54 64.35 64.83 64.61 64.51 63.68 63.29 63.00 63.65 63.00 62.77 62.94 64.06 63.77 64.52 64.66 64.59 64.59 64.82 63.92 63.63 63.94 64.62
42.91 40.37 45.57 38.93 40.98 38.32 41.04 43.93 48.12 51.48 51.87 53.62 53.71 53.05 54.57 55.70 56.11 56.29 57.57 58.94 59.91 60.78 61.92 62.72 62.80 63.01 63.86 64.39 64.54 64.36 64.21 62.84 62.99 63.30 63.37 62.71 63.27 63.25 63.82 63.87 64.82 64.84 65.09 64.97 65.30 64.61 64.26 64.10 64.25
43.92 45.83 38.24 39.79 32.01 30.62 37.50 40.21 43.33 48.66 50.50 52.52 53.04 53.39 54.29 55.66 55.89 56.29 57.53 58.82 59.92 61.34 62.28 63.03 62.90 62.83 63.79 63.73 64.46 64.03 63.89 63.05 63.46 63.23 62.69 62.98 63.33 63.57 63.33 63.39 64.55 65.05 65.22 65.28 64.82 63.75 64.16 64.05 64.40
41.04 41.19 42.32 42.71 39.99 34.55 33.36 38.52 50.55 51.46 53.40 53.25 53.93 54.82 54.77 55.65 56.14 56.62 57.78 59.12 60.04 61.35 61.85 61.97 61.94 61.89 62.12 63.06 64.10 64.18 63.54 63.26 63.42 62.99 62.65 62.70 63.20 63.15 62.74 63.25 63.92 64.51 64.67 64.52 63.68 63.37 63.14 63.30 63.79
44.51 42.97 43.06 37.48 35.78 39.71 39.20 40.00 51.07 52.81 53.62 53.28 53.20 54.11 55.24 56.47 56.97 57.36 58.06 58.83 59.55 60.04 61.31 61.16 61.74 61.78 62.22 63.70 63.70 64.14 64.13 63.53 62.95 62.64 62.58 62.78 62.66 63.06 62.83 63.63 63.54 63.65 64.17 63.20 62.39 61.89 62.17 62.38 62.23

GFSSGP_sfc_wetblb_012.txt.gz
Wetbulb
67.30 65.00 64.75 64.07 55.72 53.85 50.94 54.01 58.74 57.93 58.26 59.45 59.91 58.56 57.76 58.57 56.63 54.90 68.04 71.57 71.31 68.48 72.23 73.83 74.16 73.89 73.43 73.10 72.58 72.23 71.57 71.01 69.80 68.84 68.23 67.83 67.41 66.90 66.63 66.84 67.04 67.12 67.32 67.69 67.91 67.65 67.20 66.95 67.08
62.98 62.09 63.66 62.63 52.33 50.58 54.16 58.74 57.83 59.09 60.39 61.60 61.05 60.24 58.93 57.07 60.59 61.96 65.36 71.22 71.27 68.53 72.28 72.20 74.44 73.94 73.58 73.31 72.84 72.45 72.10 71.22 70.48 69.51 68.89 68.57 68.25 67.93 67.72 67.72 68.15 68.44 68.43 68.61 68.56 69.29 68.87 68.37 67.95
61.96 63.80 61.29 57.24 54.90 53.09 54.68 58.61 59.03 59.90 60.74 57.62 58.63 59.13 58.33 58.28 62.07 63.68 70.04 72.04 71.00 69.10 71.29 72.65 74.49 74.09 73.86 73.54 73.04 72.62 72.50 71.95 70.99 69.88 69.21 68.89 69.05 69.03 69.21 68.12 68.46 68.93 68.89 68.99 69.02 69.77 69.84 69.33 68.84
62.40 62.47 61.72 54.68 54.37 57.54 58.81 59.38 60.07 59.95 59.57 58.85 58.33 56.96 60.04 62.69 62.94 65.88 70.05 71.77 70.74 69.49 70.17 72.62 74.29 74.04 73.82 73.74 73.52 73.22 72.70 72.23 71.98 70.66 70.24 69.84 69.71 70.15 70.14 68.91 69.24 69.70 69.60 69.52 69.29 69.68 69.36 68.99 69.67
63.73 62.49 54.40 52.40 52.77 56.02 58.92 61.45 62.34 60.06 59.04 58.63 58.43 56.73 58.49 63.05 65.25 66.57 69.40 71.04 70.07 69.96 71.38 71.93 74.56 74.16 74.22 73.99 73.87 73.52 73.32 72.90 72.55 71.65 70.66 70.48 70.95 70.96 71.06 70.04 70.44 70.39 69.83 69.94 69.75 69.63 70.42 70.05 68.85
60.25 60.11 52.12 49.81 51.55 54.50 57.79 58.99 58.81 59.00 59.27 59.27 58.04 57.94 59.74 64.00 64.48 66.14 68.59 70.62 70.39 69.89 71.43 73.12 74.47 74.33 74.09 73.84 73.74 73.52 73.31 73.14 72.52 72.30 71.96 71.78 71.73 71.78 70.67 70.40 70.28 69.93 69.71 69.49 69.48 69.41 69.39 69.82 68.82
58.01 56.31 52.49 52.55 52.38 53.40 55.83 59.02 57.88 58.30 58.38 58.38 60.22 57.38 60.76 62.23 65.39 66.12 67.97 69.72 70.72 70.23 70.40 72.84 74.38 74.81 74.23 73.89 73.56 73.41 73.08 72.91 72.76 72.51 72.49 72.15 72.15 70.95 70.09 69.70 68.62 68.00 67.85 68.21 68.70 68.90 68.90 68.70 68.39
58.52 57.38 53.65 54.25 52.74 53.22 56.35 57.46 58.46 58.33 57.39 61.34 60.84 57.26 58.85 63.91 65.65 66.35 67.82 68.37 69.57 70.38 70.38 70.97 73.55 74.21 73.09 73.06 73.83 73.66 73.27 73.09 72.84 72.71 72.64 72.28 71.09 69.79 67.77 67.04 67.02 66.36 66.27 66.56 66.99 67.40 67.66 68.30 68.23
60.99 54.20 52.00 53.40 53.62 54.61 57.97 56.62 59.18 60.39 59.24 59.98 61.03 60.45 62.54 63.86 64.82 65.80 66.56 67.96 68.21 68.90 70.92 71.16 71.98 73.56 73.12 72.10 73.16 73.71 73.29 73.18 72.99 72.20 71.87 71.29 69.29 68.81 68.92 68.24 64.87 65.07 65.12 65.35 65.89 66.32 66.70 66.96 67.33
57.80 54.07 53.95 57.14 57.54 56.47 57.88 57.61 58.24 57.49 58.06 58.39 59.79 62.30 63.37 63.74 63.80 63.85 64.48 64.73 66.96 68.22 69.15 71.10 72.56 72.90 72.94 70.80 72.76 73.74 72.30 72.16 71.52 70.53 70.60 70.21 69.29 69.56 68.22 67.22 65.37 65.15 65.29 65.43 66.15 66.47 66.92 67.34 67.88
57.54 54.15 57.26 57.63 58.38 58.82 57.83 57.61 59.22 57.43 56.21 58.05 58.96 60.76 62.36 62.83 63.28 63.60 64.66 65.41 65.55 67.82 69.31 70.48 72.24 73.49 73.01 71.50 72.10 72.58 71.57 71.57 71.11 71.02 70.45 69.71 69.06 69.14 68.34 67.72 67.24 67.54 66.69 66.36 66.81 67.49 67.42 67.50 66.74
54.62 57.46 57.83 58.33 58.24 58.16 57.27 58.91 57.32 58.00 58.42 60.22 61.25 61.83 61.80 61.83 62.39 63.56 64.91 65.44 65.47 66.74 68.67 70.70 71.58 72.82 73.55 71.93 71.95 71.50 70.70 70.78 69.69 69.61 70.05 69.06 68.30 68.61 68.37 67.21 66.93 67.02 66.45 65.92 66.67 66.42 66.59 66.89 67.25
54.21 55.95 57.55 58.09 58.35 58.12 58.40 57.07 57.16 57.82 59.95 61.34 61.21 61.38 61.42 61.92 62.59 63.89 65.98 66.44 66.79 66.31 68.51 70.30 71.58 72.51 72.86 72.95 71.99 71.18 70.11 69.25 69.19 68.25 69.11 69.39 68.21 68.03 67.85 67.14 66.87 66.34 66.92 65.78 66.11 66.34 66.33 66.11 66.37
54.65 54.66 55.30 56.87 56.87 57.44 56.18 56.46 57.38 57.72 59.30 59.89 60.30 59.38 60.02 60.42 61.59 63.15 64.82 65.30 66.65 67.17 68.64 70.48 71.25 72.84 73.10 72.69 72.41 70.89 70.43 69.52 68.71 67.68 68.83 69.41 68.69 68.25 67.74 66.61 65.89 65.70 66.85 66.09 65.59 66.01 65.61 65.59 65.56
54.80 52.25 54.13 54.74 56.01 55.26 56.87 53.86 54.17 57.93 58.90 58.28 58.09 58.50 59.74 60.24 61.89 62.74 64.25 65.27 66.82 67.79 68.75 70.34 71.45 72.58 72.81 72.70 71.73 70.28 69.16 68.74 67.26 68.02 69.64 69.26 69.24 68.78 68.23 67.28 66.82 66.92 67.67 67.79 66.62 66.06 65.82 65.06 65.24
51.57 52.43 48.64 54.10 55.08 55.54 55.18 49.83 54.86 57.26 57.13 56.62 57.22 57.83 58.32 59.60 61.03 63.17 64.46 65.95 67.82 68.39 68.28 69.68 69.97 71.56 72.61 72.31 70.99 69.19 68.34 67.47 67.52 68.42 68.73 69.35 69.22 68.95 68.18 67.09 66.63 67.69 67.67 67.50 66.20 65.05 64.43 64.21 64.21
49.89 46.25 48.91 50.96 55.23 52.93 52.29 49.97 55.02 57.48 56.49 55.97 56.98 57.48 58.04 59.38 60.54 63.34 64.14 65.65 67.20 68.65 68.52 68.11 69.72 70.91 71.78 71.35 69.89 69.07 68.99 67.79 68.00 68.52 68.49 68.86 69.03 68.64 67.91 67.63 67.78 67.93 67.06 66.56 65.39 64.63 64.57 63.94 63.36
45.76 46.59 48.03 49.10 52.81 51.85 50.87 50.87 54.25 56.45 55.90 55.41 56.00 56.77 57.63 58.66 59.61 61.58 64.40 65.75 66.43 67.68 67.90 67.96 69.26 70.61 71.29 69.61 68.61 67.21 67.07 67.61 68.35 68.33 68.49 69.12 68.82 68.16 67.64 67.51 67.20 66.52 66.42 65.54 64.76 64.70 64.80 64.22 63.33
48.84 48.72 48.32 50.98 53.31 51.64 50.98 51.28 53.15 55.61 55.33 54.97 56.20 56.59 57.14 58.57 61.63 63.86 64.24 64.48 64.95 65.77 66.48 67.29 68.13 69.64 68.72 66.93 65.24 64.98 64.77 66.73 67.35 68.00 69.18 68.86 68.67 67.92 66.98 66.96 66.45 66.63 65.02 63.55 65.03 64.69 63.32 63.08 64.26
47.76 47.09 47.74 50.93 52.67 51.89 50.96 49.61 52.63 54.07 54.63 55.40 56.00 56.36 57.58 59.49 60.06 62.92 63.45 63.50 64.48 64.96 66.23 67.08 67.95 68.60 67.94 66.36 66.31 66.07 66.24 66.60 67.73 68.51 68.72 68.84 68.15 67.40 66.74 66.29 66.53 65.92 63.22 64.31 64.60 64.29 62.80 64.00 65.31
46.49 46.03 46.85 46.48 49.11 51.41 49.30 47.39 49.44 52.77 54.41 55.09 56.09 57.71 58.92 58.86 59.12 62.71 62.74 63.14 64.36 64.71 65.83 66.61 67.63 67.76 67.43 67.78 67.29 67.79 68.01 68.10 66.23 66.97 67.11 67.41 67.76 67.37 67.15 66.04 65.98 65.74 65.60 64.87 65.06 64.42 62.39 62.08 64.18
44.06 48.20 46.67 46.16 45.73 42.18 49.33 40.76 48.38 51.10 51.91 53.58 55.02 56.59 57.77 58.59 61.45 62.42 63.08 63.06 64.03 64.77 65.99 66.97 67.30 67.37 67.66 68.06 67.02 66.96 64.28 63.38 66.36 67.11 68.06 67.33 66.87 66.10 66.04 66.64 66.00 66.06 66.45 65.23 64.73 64.55 64.97 64.30 62.84
45.97 47.33 46.75 46.77 45.18 45.16 45.18 42.86 46.22 50.50 49.81 52.15 55.05 56.87 58.47 59.07 61.24 62.07 62.59 63.19 64.17 64.82 65.70 66.45 67.09 67.28 67.62 67.57 67.67 66.13 65.92 65.96 66.66 66.41 65.96 66.59 66.78 66.08 65.27 65.91 66.13 65.84 65.46 65.84 65.05 64.38 64.07 65.12 64.13
48.74 46.64 46.82 46.97 45.38 39.51 44.17 43.73 44.54 47.86 50.62 52.84 55.34 55.83 57.15 60.25 61.14 62.28 62.83 63.26 63.55 65.03 65.62 66.31 66.64 66.57 67.36 67.38 67.46 67.30 66.87 66.07 65.20 65.31 64.81 65.42 66.20 66.40 65.77 65.30 65.92 66.20 65.80 65.22 64.87 65.08 64.90 65.45 65.54
47.27 45.29 39.95 38.28 38.77 37.98 46.15 43.67 45.87 51.78 53.62 53.81 54.07 56.75 59.59 61.13 61.43 61.40 61.72 62.22 63.14 63.97 64.75 65.62 65.63 65.57 66.60 66.86 67.05 67.73 67.30 66.60 65.76 65.26 65.35 64.49 63.43 65.88 65.24 65.65 66.04 66.11 66.39 65.90 65.82 65.31 65.28 65.40 65.58
45.03 45.45 40.87 34.65 36.63 40.21 46.52 41.73 46.19 52.40 54.22 56.02 55.38 56.90 59.04 61.02 61.68 61.76 62.08 62.58 63.02 63.69 64.60 64.63 65.19 65.24 66.01 66.04 66.92 67.70 67.83 66.05 66.11 65.76 65.89 65.88 65.40 64.86 65.86 65.90 66.13 66.18 66.08 66.43 66.45 65.28 64.98 65.42 65.60
45.40 43.16 48.28 43.22 44.21 42.15 44.73 47.86 51.27 53.44 53.80 54.47 56.07 56.92 58.96 60.91 61.36 61.61 62.23 62.86 63.29 64.04 64.42 65.00 65.11 65.09 65.29 65.79 67.30 67.16 67.41 66.31 65.75 65.42 66.44 64.85 65.80 64.85 65.79 65.77 66.41 66.47 66.26 66.33 66.78 66.68 65.53 65.15 65.37
47.97 49.09 42.40 43.74 37.13 35.72 41.04 43.76 46.62 50.57 51.73 53.97 55.02 57.29 59.54 61.01 61.15 61.54 62.14 62.82 63.80 64.58 65.07 65.78 65.69 64.44 65.32 66.97 67.05 66.81 67.02 66.71 66.15 65.70 64.79 64.92 65.36 65.14 65.26 65.63 66.59 66.26 66.98 66.91 66.95 66.61 66.18 65.22 65.65
45.46 45.09 45.96 46.40 43.79 38.85 38.39 41.80 50.05 51.83 54.06 55.18 56.90 59.09 59.80 60.32 60.73 61.22 62.02 63.16 64.06 64.69 65.17 65.38 64.45 64.54 65.00 66.26 66.66 66.51 66.52 66.50 65.96 65.39 64.86 65.29 65.43 65.45 64.56 65.12 66.01 65.91 65.84 65.84 65.41 64.42 64.29 64.04 64.61
47.57 46.52 46.80 41.60 40.34 42.94 41.88 41.64 53.80 54.57 55.70 56.31 56.88 59.16 60.50 61.14 61.07 61.49 62.15 62.67 63.41 63.98 64.38 64.03 63.78 64.06 65.08 65.77 66.20 66.42 66.52 66.55 66.01 65.04 65.20 64.85 65.13 65.25 64.34 64.72 65.17 65.14 65.23 65.99 63.57 62.98 62.86 63.42 63.45

GFSSGP_sfc_wetblb_015.txt.gz
Wetbulb
66.78 64.07 65.37 63.41 56.30 54.47 53.15 54.51 59.27 58.01 58.92 61.03 61.25 59.63 58.73 59.42 56.76 54.80 68.24 70.41 70.15 70.42 73.09 73.01 73.92 73.81 73.56 73.13 72.61 72.27 71.70 70.68 69.74 68.97 68.28 67.63 66.83 66.36 66.12 66.07 66.46 66.78 66.94 67.31 67.77 67.90 67.74 67.71 67.38
61.79 61.71 63.45 61.41 52.80 51.32 52.82 57.68 57.05 59.91 61.38 62.42 61.73 61.00 59.73 57.87 61.74 62.30 66.20 70.99 70.51 70.96 73.69 71.95 74.22 73.92 73.84 73.36 72.87 72.55 71.93 71.02 70.27 69.54 68.96 68.51 68.08 67.66 67.26 67.26 67.44 68.08 67.90 67.93 68.33 68.87 69.34 69.00 68.63
65.92 62.73 60.48 56.99 54.49 51.88 53.75 58.31 59.58 60.78 61.62 59.88 59.22 60.93 59.67 59.33 62.94 63.90 70.53 71.20 70.70 70.57 74.33 72.91 74.22 73.95 73.99 73.72 73.17 72.73 72.38 71.96 70.84 69.77 69.43 69.17 68.90 68.71 68.48 68.00 68.17 68.56 69.15 69.11 68.98 69.01 69.97 70.05 69.49
60.29 61.46 61.11 56.38 54.13 56.82 57.53 60.17 60.49 60.06 61.48 60.58 59.82 57.73 61.31 64.23 62.96 65.76 69.38 70.98 70.38 70.08 73.31 74.40 74.02 73.95 73.95 73.82 73.45 73.06 72.71 72.33 71.81 70.72 70.00 69.67 69.64 70.34 69.67 68.63 68.57 68.95 69.80 69.92 69.69 69.45 69.64 69.89 69.22
62.12 60.79 54.86 53.55 52.99 56.09 59.14 60.30 62.37 60.97 60.74 59.94 59.66 58.11 59.14 64.57 66.16 67.33 68.77 69.89 69.95 70.10 71.42 74.69 74.22 74.15 74.07 74.20 73.77 73.38 72.96 72.66 72.36 71.62 70.83 70.44 71.05 71.04 70.26 69.75 69.90 70.36 70.64 70.51 70.12 70.04 70.11 69.60 69.30
58.35 59.68 54.38 51.70 53.26 55.59 57.75 59.16 59.20 58.98 60.27 59.96 59.09 59.18 60.48 65.02 65.31 66.27 67.92 69.10 69.90 70.06 71.06 72.62 74.77 74.22 74.00 73.98 73.85 73.53 73.13 73.10 72.86 72.63 72.19 71.68 71.64 71.72 71.24 70.87 70.75 70.55 70.35 69.91 69.70 69.67 69.76 69.64 68.88
57.08 57.47 53.79 53.92 53.18 54.01 55.99 59.74 58.37 58.31 58.65 58.95 60.79 57.40 61.25 63.59 66.61 66.76 67.22 68.81 69.40 69.99 70.33 71.37 75.21 74.76 74.17 73.95 73.65 73.47 73.37 73.09 73.02 72.60 72.36 72.24 71.74 71.92 71.27 70.71 70.00 69.63 68.66 67.97 68.24 68.57 69.01 69.09 68.83
58.74 57.55 53.92 55.09 53.59 53.14 58.01 58.67 60.24 58.77 58.24 62.21 61.74 57.57 59.05 63.89 66.17 65.87 66.28 66.99 68.07 69.30 69.79 70.85 73.38 75.19 74.29 73.18 74.10 73.84 73.48 73.36 72.98 72.76 72.45 72.40 71.57 71.74 71.01 69.71 67.92 67.18 66.60 66.58 66.54 67.09 67.48 68.14 68.51
59.64 53.67 52.00 53.63 54.31 54.67 58.49 57.81 60.25 61.20 59.77 60.56 61.27 61.54 63.18 64.53 65.45 65.19 65.13 65.45 66.46 67.66 69.75 70.81 71.12 73.58 74.18 72.33 72.79 73.82 73.42 73.22 73.03 72.36 72.20 72.21 70.17 69.77 70.56 69.60 67.01 66.17 65.98 65.49 65.76 66.08 66.54 67.17 67.65
55.58 53.70 54.03 57.49 57.73 56.95 58.52 58.47 59.08 58.96 58.96 59.14 60.05 62.55 63.84 64.63 64.63 63.89 63.32 62.85 64.63 66.06 68.48 70.10 73.81 72.35 73.51 71.80 72.63 73.47 72.21 72.14 71.90 71.36 70.84 71.65 70.60 69.91 69.10 69.40 66.55 66.14 66.01 65.84 65.92 66.40 66.71 67.29 66.97
56.76 53.49 57.72 58.37 59.28 59.03 58.82 58.86 60.13 58.50 57.47 59.24 58.52 60.92 62.74 63.40 63.77 63.24 62.81 63.19 64.47 66.27 67.98 70.05 74.75 75.80 74.09 72.63 71.58 73.34 72.39 71.93 71.99 71.87 72.22 72.29 69.94 70.22 69.58 69.15 68.55 68.23 67.06 67.54 66.87 66.94 67.20 67.08 66.75
55.28 57.61 58.29 58.83 59.24 58.67 57.92 58.78 58.47 59.03 59.33 61.29 61.03 62.31 62.82 62.32 62.52 62.74 62.46 63.63 64.53 66.73 67.54 70.56 72.17 75.27 76.28 72.76 70.70 71.81 72.26 71.96 71.04 71.43 72.32 70.71 68.84 70.03 69.64 68.52 68.76 69.55 67.54 67.46 66.91 66.18 67.06 67.25 66.99
54.58 56.07 57.86 59.02 59.02 58.96 59.46 57.77 58.18 58.53 60.76 61.79 61.66 62.07 62.00 62.47 62.10 62.74 63.29 64.16 65.38 67.28 68.23 69.29 73.21 75.43 75.76 76.22 71.99 72.79 72.44 70.99 71.85 70.38 70.72 70.04 68.98 70.00 69.18 69.67 67.41 68.32 67.40 67.50 67.47 67.33 67.09 66.49 66.62
56.19 55.94 56.07 56.93 57.07 58.08 57.15 57.44 58.12 59.14 61.00 60.41 60.60 61.07 61.66 61.55 61.25 62.43 63.07 63.92 65.81 68.15 68.40 69.40 72.70 75.61 75.41 74.70 76.06 74.43 74.73 72.21 70.64 69.68 69.11 70.10 69.96 69.96 68.62 68.33 67.04 67.08 67.22 67.08 66.87 66.86 67.37 66.16 66.29
57.03 54.15 55.81 56.25 56.40 55.77 57.31 54.69 55.40 58.85 59.76 59.41 59.60 60.41 60.89 61.01 61.55 61.81 62.95 64.71 65.86 67.81 69.53 73.08 74.62 75.65 75.74 75.82 75.23 73.80 71.95 70.93 69.73 69.22 70.28 69.97 70.66 70.22 69.60 68.17 67.80 69.85 69.71 68.77 67.63 67.25 67.56 65.39 64.96
53.56 54.50 50.34 55.08 55.96 56.33 56.00 50.64 56.43 59.24 58.92 58.63 58.84 59.27 59.68 60.74 61.30 62.49 63.56 65.76 69.03 69.49 71.24 72.48 71.08 74.79 76.08 75.47 74.56 72.99 71.15 70.16 68.59 68.30 68.97 70.40 70.26 69.95 69.33 67.98 67.89 70.00 69.83 68.94 67.56 66.28 66.07 64.24 64.03
52.41 48.22 49.87 52.01 56.37 55.78 54.81 52.38 56.74 58.93 58.14 58.08 58.77 59.00 59.03 60.06 61.79 64.76 64.04 65.08 68.91 70.80 72.99 71.33 73.79 72.46 75.19 75.50 73.71 73.30 74.13 69.54 68.22 68.48 68.82 69.56 69.84 69.44 68.51 67.78 68.55 69.19 69.01 68.41 66.74 66.14 65.90 63.55 63.91
46.94 48.06 49.54 49.42 53.70 54.72 53.53 53.56 56.31 57.17 57.05 57.23 58.05 58.72 59.14 59.30 60.52 63.42 64.40 65.88 67.89 69.89 71.97 72.58 72.78 74.62 75.16 73.69 73.45 70.66 69.16 68.75 68.19 68.46 68.67 69.51 69.55 68.59 68.77 67.82 68.61 68.64 67.64 66.86 66.78 65.76 66.02 64.89 66.59
50.10 49.54 49.06 51.68 54.51 52.70 52.23 52.80 55.01 56.43 56.75 56.65 57.60 58.47 59.21 59.40 61.57 63.53 64.52 66.36 67.32 68.59 69.88 70.91 71.34 74.43 73.29 71.23 69.34 68.08 66.38 67.58 67.47 68.34 69.41 69.39 69.30 69.60 68.61 67.92 67.79 67.56 66.67 66.66 66.81 65.31 64.51 64.49 65.83
48.53 47.72 48.22 51.57 53.86 52.62 52.52 52.15 55.08 56.34 56.59 56.99 57.05 57.71 58.48 59.35 60.42 61.75 63.77 67.60 67.24 68.02 68.84 69.08 70.28 72.66 72.74 70.94 70.39 68.87 68.47 67.16 67.63 68.25 69.20 69.47 68.77 68.88 67.31 67.39 67.25 67.45 66.99 66.15 65.01 65.29 63.71 63.99 64.57
48.09 47.23 48.07 48.56 52.13 52.72 52.20 50.43 52.23 54.92 56.15 56.52 57.04 57.82 58.42 59.12 59.80 61.44 62.35 66.81 66.88 67.27 68.04 68.56 69.74 71.46 71.94 71.91 70.37 69.20 68.65 68.44 67.00 66.51 67.20 68.48 68.03 68.31 67.54 67.23 66.97 66.56 67.60 65.96 66.18 65.67 64.05 61.95 65.06
44.91 50.30 49.74 49.23 48.39 44.88 51.58 43.80 50.28 52.88 53.45 54.97 56.37 57.38 58.10 59.32 60.64 61.57 62.66 66.08 66.69 67.17 68.47 68.92 69.87 69.80 69.70 71.45 70.13 70.93 66.60 64.62 65.49 67.66 67.63 68.07 67.15 66.95 66.85 66.77 66.50 65.99 68.57 65.45 65.45 65.15 63.94 64.83 62.23
47.20 50.67 50.26 49.75 47.64 47.19 47.21 44.76 47.97 51.97 50.94 53.25 55.63 56.76 58.27 59.09 60.10 60.85 64.05 65.91 66.63 67.41 68.03 68.88 69.17 68.71 69.29 69.53 70.85 67.02 67.47 65.58 66.60 66.24 67.27 67.78 67.95 66.53 66.48 66.36 66.38 66.33 65.74 66.34 65.69 65.29 64.95 65.85 64.79
50.20 49.20 49.65 49.95 47.82 41.79 45.97 45.43 45.89 48.89 51.32 53.53 55.98 57.09 58.32 59.42 60.74 62.67 65.69 66.24 66.36 67.17 67.73 68.05 67.82 68.01 68.38 68.13 68.35 68.51 67.47 66.30 65.76 65.73 66.89 67.61 67.44 66.95 66.98 65.85 66.22 66.57 66.36 65.68 65.65 66.06 65.44 65.88 66.29
49.11 47.35 41.24 39.69 39.95 40.22 47.56 45.43 47.33 52.18 53.65 54.73 55.42 56.95 57.98 61.34 63.00 63.90 64.07 64.56 65.37 65.91 66.72 66.99 67.19 66.80 67.41 67.46 67.62 67.62 67.67 67.53 66.71 65.76 66.16 65.79 64.72 66.31 66.50 66.30 66.53 66.20 66.57 66.69 66.67 66.32 65.88 66.02 66.02
46.73 47.06 42.08 36.09 38.98 41.69 47.52 43.23 47.62 53.80 55.54 55.94 56.61 57.41 61.14 62.57 63.30 63.56 64.09 64.70 65.02 65.79 66.18 66.33 66.43 66.16 66.66 66.85 67.11 67.70 67.75 66.52 66.12 66.48 65.70 66.25 65.58 66.13 66.77 66.46 66.61 66.46 66.72 66.58 66.95 65.31 65.43 66.34 66.45
46.19 44.69 49.07 45.42 47.06 44.01 46.20 48.94 52.39 54.69 55.09 55.25 56.45 57.17 60.41 62.34 63.11 63.70 64.43 64.85 65.05 65.55 65.75 66.15 66.18 66.20 66.38 66.33 67.15 67.19 67.32 66.77 66.62 66.87 66.99 65.47 66.31 65.49 65.94 66.10 66.40 66.24 66.40 66.49 66.74 67.12 66.23 65.42 65.92
47.85 50.13 43.47 46.40 39.40 38.61 43.96 46.10 45.77 51.42 52.88 54.59 56.41 57.14 59.69 62.47 63.10 63.66 64.21 64.70 65.33 65.69 65.95 66.75 66.64 66.12 65.94 66.55 66.82 66.82 66.92 66.85 66.90 66.59 65.87 65.99 66.38 65.80 65.78 65.81 66.36 66.41 66.14 66.36 66.43 66.53 66.02 65.59 66.30
45.22 45.56 46.79 47.59 46.03 41.27 40.43 43.22 52.23 53.11 54.52 54.84 55.99 58.37 61.16 62.25 62.72 63.23 63.99 64.72 65.34 65.80 66.17 66.40 65.95 65.35 65.33 66.38 66.42 66.60 66.59 66.79 66.61 65.89 65.39 65.80 65.61 66.17 64.62 64.77 65.59 65.60 66.18 66.58 66.55 65.45 64.82 64.62 65.30
47.81 47.05 47.70 43.98 43.32 45.43 45.02 45.44 54.96 54.75 55.75 57.47 58.24 60.26 62.04 62.55 62.82 63.43 63.86 64.40 64.62 65.09 65.59 65.48 65.19 64.77 65.43 65.91 66.30 65.90 66.30 66.62 66.49 65.69 65.10 65.92 65.17 65.46 64.67 65.12 64.72 64.81 65.76 66.19 64.75 63.44 63.78 63.98 63.81